Regional Weather Roundup
Issued by NWS

Home | Current Version | Previous Version | Text Only | Print | Product List | Glossary On
Versions: 1 2 3 4 5 6 7 8 9 10 11 12 13 14 15 16 17 18 19 20 21 22 23 24 25 26 27 28 29 30 31 32 33 34 35 36 37 38 39 40 41 42 43 44 45 46 47 48 49 50
000
ASUS43 KLOT 210712
RWRIL

ILLINOIS REGIONAL WEATHER ROUNDUP
NATIONAL WEATHER SERVICE CHICAGO/ROMEOVILLE IL
100 AM CST TUE FEB 21 2017

NOTE: "FAIR" INDICATES FEW OR NO CLOUDS BELOW 12,000 FEET WITH NO
SIGNIFICANT WEATHER AND/OR OBSTRUCTIONS TO VISIBILITY.

* THESE STATIONS ARE NOT UNDER NWS QUALITY CONTROL. THEY ALSO MAY NOT
  REPORT WEATHER SUCH AS PRECIPITATION OR FOG.

ILZ001-002-007-009-015-016-024-210800-
NORTHWEST ILLINOIS

CITY           SKY/WX    TMP DP  RH WIND       PRES   REMARKS
MOLINE         CLOUDY    60  55  83 S9        29.89S
STERLING*      CLOUDY    57  56  96 CALM      29.90F
SAVANNA*       LGT RAIN  54  53  99 S6        29.88F
$$

ILZ003-004-008-010-011-017-018-210800-
NORTH CENTRAL ILLINOIS

CITY           SKY/WX    TMP DP  RH WIND       PRES   REMARKS
ROCKFORD       LGT RAIN  56  54  93 S8        29.92R FOG
FREEPORT*      DRIZZLE   55  54  97 S12       29.90S
ROCHELLE*      LGT RAIN  53  52  95 W5        29.92R
DE KALB*       CLOUDY    54  50  87 SW5       29.92S
PERU*          CLOUDY    56  51  82 W6        29.92S
$$

ILZ005-006-012>014-019>023-210800-
NORTHEAST ILLINOIS

CITY           SKY/WX    TMP DP  RH WIND       PRES   REMARKS
CHICAGO-OHARE  CLOUDY    61  46  57 S14G23    29.89F
CHICAGO-MIDWAY CLOUDY    60  45  57 S15       29.91F
AURORA         CLOUDY    56  48  74 S8        29.91F
LANSING*       CLOUDY    56  49  77 S12       29.92F
JOLIET*        MOCLDY    58  48  70 S6        29.91F
WAUKEGAN       CLOUDY    58  46  64 S12       29.88F
DUPAGE AIRPORT CLOUDY    57  46  66 S7        29.90F
KANKAKEE*      CLOUDY    52  46  79 CALM      29.94S
WHEELING       CLOUDY    60  46  59 S12       29.90F
MORRIS*        CLOUDY    53  47  79 CALM      29.91F
ROMEOVILLE*    CLOUDY    54  49  83 S9        29.91F
NORTHERLY ISL    N/A     58  45  62 S10         N/A
$$

LMZ740>746-210800-
SOUTHERN LAKE MICHIGAN

STATION/POSITION SKY/WX   TEMP    WIND        PRES    VSBY  WAVE
                          AIR SEA DIR/SP/G                  HT/PER
                          (F)     (DEG/KT/KT) (MB)    (MI)  (FT/S)
HARRISON CRIB              54     180/ 16/ 17   N/A
BURNHAM HARBOR             58     170/  8/ 13   N/A
CALUMET HARBOR             58     170/ 10/ 14 1012.8F
BURNS HARBOR               58     180/ 15/ 21 1013.9
MICHIGAN CITY              57     150/ 13/ 17   N/A
$$

ILZ025>027-034>036-040-047-049-050-058-095>099-210800-
WEST-CENTRAL ILLINOIS

CITY           SKY/WX    TMP DP  RH WIND       PRES   REMARKS
QUINCY         LGT RAIN  59  58  96 CALM      29.93R FOG
GALESBURG*     RAIN      56  56  99 CALM      29.92S
MACOMB*        LGT RAIN  58  58  99 CALM      29.95R VSB 1/2
JACKSONVILLE*  CLOUDY    60  54  81 NW5       29.93S
PITTSFIELD*    LGT RAIN  59  58  99 CALM      29.94S
$$

ILZ028>032-037-038-041>044-048-051>054-059>061-210800-
CENTRAL ILLINOIS

CITY           SKY/WX    TMP DP  RH WIND       PRES   REMARKS
PONTIAC        PTCLDY    56  52  86 S6        29.94R
BLOOMINGTON    CLOUDY    58  51  78 SW9       29.95R
DECATUR        CLOUDY    59  49  69 SW6       29.93S
PEORIA         LGT RAIN  59  54  83 CALM      29.94R
LACON*         CLOUDY    59  52  76 CALM      29.92R
LINCOLN*       CLOUDY    61  53  74 CALM      29.93S
SPRINGFIELD    CLOUDY    62  52  69 SW3       29.93R
TAYLORVILLE    CLOUDY    59  51  74 SW8       29.95R
$$

ILZ033-039-045-046-055>057-062-063-210800-
EAST-CENTRAL ILLINOIS

CITY           SKY/WX    TMP DP  RH WIND       PRES   REMARKS
CHAMPAIGN      CLOUDY    57  47  69 S9        29.94F
RANTOUL*       PTCLDY    55  49  81 CALM      29.94S
MATTOON        CLOUDY    59  49  69 S9        29.93F
PARIS*         PTCLDY    53  47  79 S5        29.97R
$$

ILZ079-100>102-210800-
SOUTHWEST ILLINOIS

CITY           SKY/WX    TMP DP  RH WIND       PRES   REMARKS
ALTON          CLOUDY    58  53  84 SE3       29.94R
BELLEVILLE     CLOUDY    60  54  81 CALM      29.92R
CAHOKIA*       CLOUDY    60  52  74 S3        29.93R
SPARTA*        MOCLDY    60  51  73 SE5       29.93F
$$

ILZ064>066-069>071-074>076-080>082-084>086-088>090-092>094-210800-
SOUTH-CENTRAL ILLINOIS

CITY           SKY/WX    TMP DP  RH WIND       PRES   REMARKS
CARBONDALE     CLOUDY    63  51  65 S8        29.92F
CAIRO*         MOCLDY    60  50  69 SE6       29.93F
EFFINGHAM*     MOCLDY    60  51  70 CALM      29.96S
MARION         CLOUDY    64  50  59 S7        29.94S
MT. VERNON     CLOUDY    61  50  67 SW3       29.95R
CENTRALIA*     CLOUDY    61  52  71 S9        29.94R
SALEM*         CLOUDY    64  50  61 S6        29.94R
METROPOLIS*    CLOUDY    57  50  78 CALM      29.95S
$$

ILZ067-068-072-073-078-083-087-091-210800-
SOUTHEAST ILLINOIS

CITY           SKY/WX    TMP DP  RH WIND       PRES   REMARKS
LAWRENCEVILLE  CLOUDY    56  46  69 S3        29.96S
FLORA*         CLOUDY    60  50  70 S7        29.94S
FAIRFIELD*     CLOUDY    60  49  67 CALM      29.93S
HARRISBURG*    CLOUDY    58  51  78 CALM      29.95S
ROBINSON*      MOCLDY    53  46  79 SE3       29.96S
CARMI*         CLOUDY    55  49  80 CALM      29.94F
$$

ABBREVIATIONS USED IN REMARKS
   TC - TEMPERATURE IN CELSIUS
  WCI - WIND CHILL INDEX
   HX - HEAT INDEX
  VSB - VISIBILITY
$$




USA.gov is the U.S. government's official web portal to all federal, state and local government web resources and services.